THOR ABLESTAR DEB, 475

Orbit data source: Space-Track

THOR ABLESTAR DEB, 475 is space debris in LEO originally from a launch on Thu, 29 Jun 1961 UTC launched from the Air Force Eastern Test Range (AFETR). Debris objects in space refer to the collection of defunct objects orbiting the Earth. Examples of debris include non-operational satellites, rocket bodies, and fragments generated from explosions, collisions, or faulty payload assembly.

Loading next visibility...
Identifier
475, 1961-015FM
Orbit
LEO
Country
Flag of USUS
Related business
Manufacturer
Unknown
Mission
Spacecraft
Bus & Motor
Unknown
Mass
Unknown
Launch date (UTC)
1961-06-29 (65 years ago)
Launch vehicle
Unknown
Launch site
Air Force Eastern Test Range (AFETR)
Object type
Payload
Rocket body
Debris
Shape & HBR
Unknown shape, 0.1 m
Radar Cross Section
Medium (>0.1 m² and <1 m²)

Expand to show TLE details & history
Last TLE update: 20 hours ago

TLE from 20 hours ago
0 THOR ABLESTAR DEB
1   475U 61015FM  26151.14702354  .00004651  00000-0  18924-2 0  9992
2   475  66.2211  62.5481 0129792 118.1159 243.3121 14.23869860285365
Epoch: 2026-05-31T03:31Z
TLE epoch observation values (Epoch: 2026-05-31T03:31:42.833Z)
Latitude
-0.00006°
Longitude
120.96673°
Altitude
857.238 km
Speed
7.402 km/s
True Right ascension
04h 10m 11s
True Declination
0° 00' 00"
Sunlit
Object was in daylight at epoch
Visualization orbit readout
Latitude
Unknown
Longitude
Unknown
Altitude
Unknown
Speed
Unknown
Apparent Right ascension
Unknown
Apparent Declination
Unknown
Sunlit
N/A
Visualization observer readout
Local Sidereal Time
08:52:58
Azimuth
Unknown
Elevation
Unknown
Doppler factor
Unknown
Orbital elements
Apogee altitude
904.036 km
Perigee altitude
717.425 km
Semi-major axis
7,188.867 km
Eccentricity
0.01298
Inclination
66.2211°
RAAN
62.5481°
Arg. of periapsis
118.1159°
True anomaly
241.99297°
Mean anomaly
243.3121°
Eccentric anomaly
242.65157°
Mean motion
3.56084 °/min
Orbital period
101.1 mins
BSTAR
0.0018924
Loading maneuver chart data...
Computing Atmospheric mass density...

Documentation

Showing up to 5 results
|